Location: Lombard
(41.8800°N, 88.0080°W)
Time: 19:00:08
(UTC-05:00)

Transit 2A - Pass Details

Date: 12 February 2023
Orbit: 591 x 964 km, 66.7° (Epoch: 29 March)

Event Time Altitude Azimuth Distance (km) Brightness Sun altitude
Rises 22:19:33 0° 335° (NNW) 3,513 9.9 -53.4°
Enters shadow 22:20:21 - 338° (NNW) 3,244 9.7 -53.5°
Reaches altitude 10° 22:22:18 10° 346° (NNW) 2,615 - -53.7°
Maximum altitude 22:27:46 32° 48° (NE) 1,569 - -54.4°
Drops below altitude 10° 22:33:24 10° 110° (ESE) 2,698 - -55.2°
Sets 22:36:16 0° 120° (ESE) 3,639 - -55.5°
